When you browse on this site, cookies collect data to enhance your experience and personalize the content and advertising you see.
Visit our Privacy Policy to learn more. By continuing to use the site, you agree to this use of cookies and data.
  • In Netherlands
  • List of Countries
  • For 7 days
  • Water Temperature
  • Satellite Maps
  • Weather Map
  • Weather Widgets
  • user-avatar
    Login

    Hourly Weather Khulna

    Today, 22 May, Wednesday

    Time Temperature Precipitation Wind Pressure Humidity
    00:00 +32°C° 0 mm 4 mps 753 mmHg 79%
    01:00 +32°C° 0 mm 4 mps 753 mmHg 80%
    02:00 +32°C° 0 mm 4 mps 753 mmHg 81%
    03:00 +32°C° 0 mm 4 mps 753 mmHg 82%
    04:00 +31°C° 0 mm 3 mps 753 mmHg 82%
    05:00 +31°C° 0 mm 3 mps 753 mmHg 82%
    06:00 +31°C° 0 mm 3 mps 753 mmHg 80%
    07:00 +34°C° 0 mm 3 mps 753 mmHg 72%
    08:00 +35°C° 0 mm 4 mps 753 mmHg 64%
    09:00 +37°C° 0 mm 4 mps 754 mmHg 55%
    10:00 +40°C° 0 mm 4 mps 753 mmHg 49%
    11:00 +42°C° 0 mm 5 mps 753 mmHg 42%
    12:00 +43°C° 0 mm 3 mps 754 mmHg 37%
    13:00 +43°C° 0 mm 4 mps 753 mmHg 36%
    14:00 +44°C° 0 mm 4 mps 752 mmHg 35%
    15:00 +45°C° 0 mm 5 mps 752 mmHg 34%
    16:00 +42°C° 0 mm 5 mps 752 mmHg 42%
    17:00 +40°C° 0 mm 6 mps 751 mmHg 49%
    18:00 +38°C° 0 mm 6 mps 751 mmHg 56%
    19:00 +36°C° 0 mm 6 mps 751 mmHg 62%
    20:00 +35°C° 0 mm 6 mps 752 mmHg 67%
    21:00 +34°C° 0 mm 6 mps 752 mmHg 73%
    22:00 +33°C° 0 mm 6 mps 752 mmHg 74%
    23:00 +33°C° 0 mm 6 mps 752 mmHg 76%

    Tomorrow, 23 May, Thursday

    Time Temperature Precipitation Wind Pressure Humidity
    00:00 +33°C° 0 mm 6 mps 752 mmHg 77%
    01:00 +33°C° 0 mm 5 mps 752 mmHg 77%
    02:00 +32°C° 0 mm 5 mps 752 mmHg 77%
    03:00 +32°C° 0 mm 5 mps 752 mmHg 77%
    04:00 +32°C° 0 mm 4 mps 752 mmHg 77%
    05:00 +32°C° 0 mm 4 mps 752 mmHg 77%
    06:00 +31°C° 0 mm 3 mps 752 mmHg 78%
    07:00 +34°C° 0 mm 4 mps 753 mmHg 70%
    08:00 +36°C° 0 mm 4 mps 753 mmHg 62%
    09:00 +37°C° 0 mm 5 mps 753 mmHg 54%
    10:00 +40°C° 0 mm 5 mps 753 mmHg 48%
    11:00 +42°C° 0 mm 6 mps 753 mmHg 42%
    12:00 +45°C° 0 mm 6 mps 753 mmHg 36%
    13:00 +45°C° 0 mm 7 mps 752 mmHg 35%
    14:00 +45°C° 0 mm 7 mps 751 mmHg 34%
    15:00 +45°C° 0 mm 7 mps 750 mmHg 34%
    16:00 +43°C° 0 mm 8 mps 750 mmHg 41%
    17:00 +40°C° 0 mm 8 mps 749 mmHg 47%
    18:00 +38°C° 0 mm 9 mps 749 mmHg 54%
    19:00 +35°C° 4.7 mm 7 mps 750 mmHg 63%
    20:00 +34°C° 4.7 mm 4 mps 751 mmHg 71%
    21:00 +31°C° 4.7 mm 2 mps 752 mmHg 79%
    22:00 +31°C° 1.7 mm 3 mps 752 mmHg 78%
    23:00 +32°C° 1.7 mm 5 mps 752 mmHg 76%

    Day after tomorrow, 24 May, Friday

    Time Temperature Precipitation Wind Pressure Humidity
    00:00 +32°C° 1.7 mm 6 mps 752 mmHg 74%
    01:00 +32°C° 0 mm 6 mps 751 mmHg 76%
    02:00 +32°C° 0 mm 7 mps 751 mmHg 77%
    03:00 +32°C° 0 mm 7 mps 751 mmHg 78%
    04:00 +32°C° 0 mm 6 mps 751 mmHg 78%
    05:00 +32°C° 0 mm 5 mps 751 mmHg 78%
    06:00 +32°C° 0 mm 4 mps 752 mmHg 78%
    07:00 +33°C° 0 mm 5 mps 752 mmHg 72%
    08:00 +34°C° 0 mm 6 mps 752 mmHg 67%
    09:00 +36°C° 0 mm 7 mps 753 mmHg 61%
    10:00 +39°C° 0 mm 7 mps 752 mmHg 55%
    11:00 +40°C° 0 mm 8 mps 752 mmHg 48%
    12:00 +43°C° 0 mm 8 mps 751 mmHg 42%
    13:00 +43°C° 0 mm 8 mps 751 mmHg 43%
    14:00 +43°C° 0 mm 8 mps 750 mmHg 44%
    15:00 +43°C° 0 mm 8 mps 749 mmHg 45%
    16:00 +40°C° 0 mm 7 mps 749 mmHg 50%
    17:00 +39°C° 0 mm 7 mps 749 mmHg 54%
    18:00 +38°C° 0 mm 7 mps 749 mmHg 59%
    19:00 +36°C° 0 mm 7 mps 749 mmHg 64%
    20:00 +34°C° 0 mm 7 mps 750 mmHg 69%
    21:00 +33°C° 0 mm 7 mps 750 mmHg 74%
    22:00 +33°C° 0 mm 6 mps 750 mmHg 75%
    23:00 +33°C° 0 mm 6 mps 750 mmHg 75%

    25 May, Saturday

    Time Temperature Precipitation Wind Pressure Humidity
    00:00 +33°C° 0 mm 6 mps 750 mmHg 76%
    01:00 +33°C° 0 mm 6 mps 750 mmHg 77%
    02:00 +33°C° 0 mm 6 mps 750 mmHg 77%
    03:00 +33°C° 0 mm 5 mps 749 mmHg 77%
    04:00 +33°C° 0 mm 5 mps 749 mmHg 77%
    05:00 +33°C° 0 mm 5 mps 749 mmHg 77%
    06:00 +33°C° 0 mm 6 mps 749 mmHg 77%
    07:00 +34°C° 0 mm 6 mps 750 mmHg 74%
    08:00 +34°C° 0 mm 7 mps 750 mmHg 70%
    09:00 +35°C° 0 mm 7 mps 751 mmHg 67%
    10:00 +38°C° 0 mm 7 mps 750 mmHg 61%
    11:00 +40°C° 0 mm 7 mps 750 mmHg 56%
    12:00 +41°C° 0 mm 7 mps 750 mmHg 50%
    13:00 +43°C° 0 mm 7 mps 749 mmHg 49%
    14:00 +43°C° 0 mm 7 mps 749 mmHg 47%
    15:00 +43°C° 0 mm 7 mps 748 mmHg 46%
    16:00 +41°C° 0.2 mm 7 mps 748 mmHg 52%
    17:00 +39°C° 0.2 mm 7 mps 748 mmHg 58%
    18:00 +36°C° 0.2 mm 7 mps 747 mmHg 65%
    19:00 +35°C° 0 mm 6 mps 748 mmHg 69%
    20:00 +34°C° 0 mm 6 mps 749 mmHg 73%
    21:00 +33°C° 0 mm 6 mps 749 mmHg 77%
    22:00 +33°C° 0 mm 6 mps 750 mmHg 78%
    23:00 +33°C° 0 mm 5 mps 750 mmHg 79%

    26 May, Sunday

    Time Temperature Precipitation Wind Pressure Humidity
    00:00 +33°C° 0 mm 5 mps 750 mmHg 80%
    01:00 +33°C° 0 mm 5 mps 749 mmHg 79%
    02:00 +33°C° 0 mm 5 mps 749 mmHg 79%
    03:00 +33°C° 0 mm 5 mps 749 mmHg 79%
    04:00 +33°C° 0 mm 5 mps 749 mmHg 79%
    05:00 +33°C° 0 mm 6 mps 749 mmHg 79%
    06:00 +33°C° 0 mm 6 mps 749 mmHg 79%
    07:00 +34°C° 0 mm 6 mps 750 mmHg 76%
    08:00 +34°C° 0 mm 6 mps 751 mmHg 73%
    09:00 +35°C° 0 mm 7 mps 751 mmHg 70%
    10:00 +36°C° 0 mm 6 mps 751 mmHg 65%
    11:00 +39°C° 0 mm 6 mps 751 mmHg 60%
    12:00 +40°C° 0 mm 6 mps 751 mmHg 55%
    13:00 +40°C° 0 mm 6 mps 750 mmHg 53%
    14:00 +41°C° 0 mm 7 mps 749 mmHg 52%
    15:00 +41°C° 0 mm 7 mps 748 mmHg 50%
    16:00 +40°C° 0 mm 7 mps 748 mmHg 56%
    17:00 +38°C° 0 mm 7 mps 748 mmHg 62%
    18:00 +35°C° 0 mm 7 mps 748 mmHg 68%
    19:00 +35°C° 0 mm 6 mps 749 mmHg 70%
    20:00 +34°C° 0 mm 4 mps 750 mmHg 71%
    21:00 +34°C° 0 mm 2 mps 751 mmHg 73%
    22:00 +34°C° 0 mm 3 mps 750 mmHg 75%
    23:00 +33°C° 0 mm 4 mps 750 mmHg 76%

    27 May, Monday

    Time Temperature Precipitation Wind Pressure Humidity
    00:00 +33°C° 0 mm 5 mps 750 mmHg 78%
    01:00 +33°C° 0 mm 5 mps 750 mmHg 79%
    02:00 +33°C° 0 mm 4 mps 750 mmHg 81%
    03:00 +32°C° 0 mm 4 mps 749 mmHg 82%
    04:00 +32°C° 0 mm 4 mps 750 mmHg 81%
    05:00 +33°C° 0 mm 4 mps 750 mmHg 80%
    06:00 +33°C° 0 mm 4 mps 750 mmHg 79%
    07:00 +35°C° 0 mm 4 mps 750 mmHg 72%
    08:00 +36°C° 0 mm 4 mps 751 mmHg 64%
    09:00 +39°C° 0 mm 5 mps 751 mmHg 56%
    10:00 +41°C° 0 mm 5 mps 751 mmHg 50%
    11:00 +42°C° 0 mm 5 mps 751 mmHg 44%
    12:00 +45°C° 0 mm 5 mps 750 mmHg 39%
    13:00 +45°C° 0 mm 5 mps 750 mmHg 39%
    14:00 +45°C° 0 mm 6 mps 749 mmHg 39%
    15:00 +45°C° 0 mm 6 mps 749 mmHg 39%
    16:00 +42°C° 0 mm 6 mps 749 mmHg 45%
    17:00 +41°C° 0 mm 7 mps 749 mmHg 52%
    18:00 +39°C° 0 mm 7 mps 749 mmHg 58%
    19:00 +38°C° 0 mm 6 mps 749 mmHg 62%
    20:00 +35°C° 0 mm 6 mps 750 mmHg 67%
    21:00 +34°C° 0 mm 5 mps 750 mmHg 72%
    22:00 +34°C° 0 mm 5 mps 750 mmHg 73%
    23:00 +34°C° 0 mm 5 mps 750 mmHg 75%
    Show more